{"data":{"norad_id":48334,"intl_designator":"2021-036BL","name":"STARLINK-2470","alt_names":[],"object_type":"PAYLOAD","status":"ACTIVE","operator":null,"country":"US","launch_date":"2021-04-29","launch_site_code":"AFETR","launch_vehicle":null,"mission":null,"orbit_class":"UNKNOWN","rcs_meters":null,"size_class":null,"mass_kg":null,"dimensions":null,"purposes":["comms"],"wikipedia_slug":null,"has_3d_model":false,"image_url":null,"decayed_at":null,"tle_current":{"epoch":"2026-05-25T02:42:32.537376Z","epoch_age_seconds":61772,"freshness":"FRESH","line1":"1 48334U 21036BL  26145.11287659  .00000017  00000+0  12314-4 0  9993","line2":"2 48334  53.1598 105.5784 0001370  90.2396 269.8762 15.31699625279752","mean_motion":15.31699625,"eccentricity":0.000137,"inclination_deg":53.1598,"raan_deg":105.5784,"arg_perigee_deg":90.2396,"mean_anomaly_deg":269.8762,"bstar":1.2314e-5,"rev_number":27975,"period_min":94.013210977968,"perigee_km":469.80281677987,"apogee_km":471.67940938285,"semimajor_km":6848.8781130814,"source":"CELESTRAK","updated_at":"2026-05-25T13:38:16.683973Z"}}}